Location: Perryvale
(54.4667°N, 113.3833°W)
Time: 20:42:42
(UTC+00:00)

Vanguard 1 Rocket - Pass Details

Date: 25 May 2024
Orbit: 649 x 4220 km, 34.3° (Epoch: 19 June)

Event Time Altitude Azimuth Distance (km) Brightness Sun altitude
Rises 12:35:04 0° 174° (S) 8,455 12.1 9.4°
Reaches altitude 10° 12:50:18 10° 144° (SE) 7,036 12.2 11.4°
Maximum altitude 12:53:31 10° 135° (SE) 6,820 12.2 11.9°
Drops below altitude 10° 12:56:35 10° 127° (SE) 6,665 12.3 12.3°
Sets 13:08:08 0° 95° (E) 6,691 13.2 13.9°
